Weather History for Stevens Point, WI

Change the Weather History Date:

Wednesday, February 6, 2013

  Actual Average Record
Temperature  
Mean Temperature 7 °F -  
Max Temperature 21 °F 24 °F 48 °F (1991)
Min Temperature -7 °F 5 °F -21 °F (1982)
Degree Days  
Heating Degree Days 58    
Moisture  
Dew Point 7 °F    
Average Humidity 87    
Maximum Humidity 96    
Minimum Humidity 74    
Precipitation  
Precipitation 0.01 in - - ()
Sea Level Pressure  
Sea Level Pressure 30.10 in    
Wind  
Wind Speed 2 mph (SE)    
Max Wind Speed 10 mph    
Max Gust Speed -    
Visibility 6 miles    
Events Fog , Snow    
Averages and records for this station are not official NWS values.
T = Trace of Precipitation, MM = Missing Value Source: NWS Daily Summary

Daily Weather History Graph

Daily Weather History Graph

Search for Another Location

Airport:

Trip Planner

Search our weather history database for the weather conditions in past years. The results will help you decide how hot, cold, wet, or windy it might be!

Date:

Astronomy

Feb. 06, 2013 Rise Set
Actual Time 7:10 AM CST 5:14 PM CST
Civil Twilight 6:39 AM CST 5:45 PM CST
Nautical Twilight 6:05 AM CST 6:19 PM CST
Astronomical Twilight 5:31 AM CST 6:53 PM CST
Moon 3:58 AM CST (2/6) 1:28 PM CST (2/6)
Length of Visible Light 11h 05m
Length of Day
10h 04m
Waning Crescent, 17% of the Moon is Illuminated
Feb 6
Waning Crescent
Feb 10
New
Feb 17
First Quarter
Feb 25
Full
Mar 4
Last Quarter

Hourly Weather History & Observations

Time (CST) Temp. Windchill Dew Point Humidity Pressure Visibility Wind Dir Wind Speed Gust Speed Precip Events Conditions
12:15 AM -0.6 °F - -3.6 °F 87% 30.06 in 10.0 mi Calm Calm - N/A   Clear
12:35 AM -2.4 °F - -5.6 °F 86% 30.06 in 10.0 mi Calm Calm - N/A   Clear
12:55 AM -2.2 °F - -5.6 °F 85% 30.07 in 10.0 mi Calm Calm - N/A   Clear
1:15 AM -3.8 °F - -7.2 °F 85% 30.07 in 10.0 mi Calm Calm - N/A   Clear
1:35 AM -3.5 °F - -6.7 °F 86% 30.08 in 10.0 mi Calm Calm - N/A   Clear
1:55 AM -4.4 °F - -7.8 °F 85% 30.08 in 10.0 mi Calm Calm - N/A   Clear
2:15 AM -6.5 °F - -10.5 °F 83% 30.08 in 10.0 mi Calm Calm - N/A   Clear
2:35 AM -5.8 °F - -9.6 °F 84% 30.08 in 10.0 mi Calm Calm - N/A   Clear
2:55 AM -6.0 °F - -9.6 °F 84% 30.09 in 7.0 mi Calm Calm - N/A   Clear
3:15 AM -6.5 °F - -10.5 °F 83% 30.08 in 10.0 mi Calm Calm - N/A   Clear
3:35 AM -7.2 °F - -11.2 °F 83% 30.09 in 10.0 mi Calm Calm - N/A   Mostly Cloudy
3:55 AM -7.1 °F - -11.0 °F 83% 30.10 in 10.0 mi Calm Calm - N/A   Mostly Cloudy
4:15 AM -7.1 °F - -10.8 °F 84% 30.09 in 10.0 mi Calm Calm - N/A   Overcast
4:35 AM -7.2 °F - -11.0 °F 84% 30.10 in 10.0 mi Calm Calm - N/A   Overcast
4:55 AM -6.7 °F - -10.3 °F 84% 30.11 in 3.0 mi Calm Calm - N/A   Overcast
5:15 AM -6.7 °F - -10.3 °F 84% 30.11 in 0.2 mi Calm Calm - N/A Fog Light Freezing Fog
5:35 AM -6.5 °F - -10.3 °F 84% 30.11 in 0.2 mi Calm Calm - N/A Fog Light Freezing Fog
5:55 AM -6.2 °F - -9.9 °F 84% 30.11 in 5.0 mi Calm Calm - N/A   Overcast
6:15 AM -5.8 °F - -9.4 °F 84% 30.11 in 0.2 mi Calm Calm - N/A Fog Light Freezing Fog
6:35 AM -6.0 °F - -9.6 °F 84% 30.11 in 0.8 mi Calm Calm - N/A   Mist
6:55 AM -5.6 °F - -9.4 °F 84% 30.13 in 0.2 mi Calm Calm - N/A Fog Light Freezing Fog
7:35 AM -6.9 °F - -10.8 °F 83% 30.13 in 5.0 mi Calm Calm - N/A   Overcast
7:55 AM -7.1 °F - -11.2 °F 82% 30.13 in 0.5 mi Calm Calm - N/A Fog Light Freezing Fog
8:15 AM -5.4 °F - -9.4 °F 83% 30.15 in 0.2 mi Calm Calm - N/A Fog Light Freezing Fog
8:55 AM -2.0 °F - -5.3 °F 86% 30.16 in 4.0 mi Calm Calm - N/A   Scattered Clouds
9:15 AM 0.3 °F - -3.1 °F 85% 30.15 in 4.0 mi Calm Calm - N/A   Scattered Clouds
9:35 AM 3.0 °F - -0.4 °F 86% 30.16 in 4.0 mi Calm Calm - N/A   Clear
9:55 AM 5.4 °F - 2.7 °F 89% 30.16 in 5.0 mi Calm Calm - N/A   Clear
10:35 AM 14.0 °F 6.5 °F 12.2 °F 93% 30.15 in 10.0 mi South 4.6 mph - N/A   Clear
10:55 AM 15.8 °F 10.2 °F 14.0 °F 93% 30.15 in 10.0 mi South 3.5 mph - N/A   Clear
11:15 AM 17.1 °F 10.0 °F 15.3 °F 93% 30.15 in 10.0 mi South 4.6 mph - N/A   Clear
11:35 AM 18.0 °F 6.9 °F 15.8 °F 91% 30.16 in 10.0 mi SSW 9.2 mph - N/A   Scattered Clouds
11:55 AM 18.1 °F 10.0 °F 15.6 °F 90% 30.14 in 10.0 mi South 5.8 mph - N/A   Mostly Cloudy
12:15 PM 18.7 °F 13.5 °F 14.7 °F 85% 30.14 in 10.0 mi South 3.5 mph - N/A   Mostly Cloudy
12:35 PM 19.9 °F 14.9 °F 13.8 °F 77% 30.14 in 10.0 mi SW 3.5 mph - N/A   Overcast
12:55 PM 20.8 °F 13.2 °F 13.6 °F 74% 30.13 in 10.0 mi South 5.8 mph - N/A   Overcast
1:15 PM 21.2 °F 13.6 °F 14.0 °F 74% 30.13 in 10.0 mi South 5.8 mph - N/A   Overcast
1:35 PM 21.2 °F 16.4 °F 14.5 °F 75% 30.11 in 2.5 mi SSE 3.5 mph - N/A   Overcast
1:55 PM 20.8 °F 13.2 °F 15.4 °F 80% 30.11 in 1.5 mi SE 5.8 mph - N/A Snow Light Snow
2:15 PM 20.3 °F 12.5 °F 16.7 °F 86% 30.10 in 1.0 mi SE 5.8 mph - N/A   Overcast
2:35 PM 20.1 °F 13.6 °F 17.4 °F 89% 30.11 in 0.5 mi SSE 4.6 mph - N/A   Overcast
2:55 PM 20.3 °F 13.8 °F 17.6 °F 89% 30.10 in 0.8 mi SE 4.6 mph - N/A   Overcast
3:15 PM 20.3 °F 12.5 °F 18.1 °F 91% 30.10 in 0.8 mi SE 5.8 mph - 0.01 in   Overcast
3:35 PM 20.3 °F 12.5 °F 18.0 °F 91% 30.09 in 0.8 mi SE 5.8 mph - 0.01 in Snow Light Snow
3:55 PM 20.3 °F 12.5 °F 18.3 °F 92% 30.08 in 0.8 mi SSE 5.8 mph - 0.01 in   Overcast
4:15 PM 20.7 °F 15.8 °F 18.5 °F 91% 30.08 in 1.5 mi SE 3.5 mph - N/A   Overcast
4:35 PM 20.3 °F 10.6 °F 17.8 °F 90% 30.08 in 5.0 mi ESE 8.1 mph - N/A   Overcast
4:55 PM 19.9 °F 9.3 °F 16.7 °F 87% 30.08 in 7.0 mi ESE 9.2 mph - N/A   Overcast
5:15 PM 19.4 °F 7.9 °F 16.7 °F 89% 30.07 in 7.0 mi East 10.4 mph - N/A   Overcast
5:35 PM 19.2 °F 9.3 °F 16.5 °F 89% 30.07 in 7.0 mi ESE 8.1 mph - N/A   Overcast
5:55 PM 19.0 °F 9.0 °F 16.3 °F 89% 30.07 in 7.0 mi East 8.1 mph - N/A   Overcast
6:15 PM 19.0 °F 8.2 °F 16.3 °F 89% 30.07 in 7.0 mi East 9.2 mph - N/A   Overcast
6:35 PM 19.0 °F 7.5 °F 16.5 °F 90% 30.07 in 5.0 mi SE 10.4 mph - N/A   Overcast
6:55 PM 19.0 °F 8.2 °F 16.7 °F 91% 30.05 in 5.0 mi East 9.2 mph - N/A   Overcast
7:15 PM 19.2 °F 7.7 °F 17.1 °F 91% 30.06 in 5.0 mi ESE 10.4 mph - N/A   Overcast
7:35 PM 19.4 °F 8.6 °F 17.6 °F 93% 30.05 in 4.0 mi ESE 9.2 mph - N/A   Overcast
7:55 PM 19.4 °F 10.4 °F 17.6 °F 93% 30.06 in 5.0 mi ESE 6.9 mph - N/A   Overcast
8:15 PM 20.3 °F 11.5 °F 18.5 °F 93% 30.05 in 5.0 mi ESE 6.9 mph - N/A   Overcast
8:35 PM 20.7 °F 11.9 °F 18.5 °F 91% 30.06 in 5.0 mi ESE 6.9 mph - N/A   Overcast
8:55 PM 20.7 °F 14.2 °F 18.5 °F 91% 30.06 in 5.0 mi ESE 4.6 mph - N/A   Overcast
9:15 PM 20.8 °F 13.2 °F 18.9 °F 92% 30.07 in 5.0 mi East 5.8 mph - N/A   Overcast
9:35 PM 20.7 °F 11.9 °F 18.9 °F 93% 30.07 in 5.0 mi East 6.9 mph - N/A   Overcast
9:55 PM 20.7 °F 11.9 °F 19.0 °F 93% 30.07 in 4.0 mi East 6.9 mph - N/A   Overcast
10:15 PM 20.7 °F 13.0 °F 19.2 °F 94% 30.06 in 4.0 mi East 5.8 mph - N/A   Overcast
10:35 PM 20.7 °F 13.0 °F 19.2 °F 94% 30.06 in 4.0 mi East 5.8 mph - N/A   Overcast
10:55 PM 21.0 °F 12.4 °F 19.4 °F 93% 30.06 in 4.0 mi East 6.9 mph - N/A   Overcast
11:15 PM 21.0 °F 12.4 °F 19.6 °F 94% 30.05 in 3.0 mi East 6.9 mph - N/A   Overcast
11:35 PM 21.0 °F 12.4 °F 19.8 °F 95% 30.06 in 3.0 mi East 6.9 mph - N/A   Overcast
11:55 PM 21.2 °F 11.7 °F 20.1 °F 96% 30.06 in 3.0 mi East 8.1 mph - N/A   Overcast